Regional Weather Roundup
Issued by NWS

Home | Current Version | Previous Version | Graphics & Text | Print | Product List | Glossary Off
Versions: 1 2 3 4 5 6 7 8 9 10 11 12 13 14 15 16 17 18 19 20 21 22 23 24 25 26 27 28 29 30 31 32 33 34 35 36 37 38 39 40 41 42 43 44 45 46 47 48 49 50

000
ASUS43 KLSX 080159
RWRMO

WEATHER SUMMARY FOR MISSOURI
NATIONAL WEATHER SERVICE SPRINGFIELD MO
900 PM CDT TUE JUL 07 2015

NOTE: "FAIR" INDICATES FEW OR NO CLOUDS BELOW 12,000 FEET WITH NO
       SIGNIFICANT WEATHER AND/OR OBSTRUCTIONS TO VISIBILITY.
       CURRENT SKY AND/OR WEATHER CONDITIONS ARE NOT AVAILABLE FOR
       CHILLICOTHE AND FARMINGTON.

MOZ001>031-035>038-043-044-053-054-080300-
...NORTHERN AND WESTERN MISSOURI...

CITY           SKY/WX    TMP DP  RH WIND       PRES   REMARKS
KANSAS CTY INT CLOUDY    68  59  73 NE7       30.05S
KANSAS C DTWN  CLOUDY    70  59  68 NE8       30.04S
LEE`S SUMMIT   LGT RAIN  67  62  84 N5        30.05S
ST JOSEPH      CLOUDY    68  58  70 NE6       30.06R
CHILLICOTHE      N/A     69  60  73 N5        30.06S
KIRKSVILLE     CLOUDY    66  59  78 NE3       30.07R HAZE

$$
MOZ066>068-077>081-088>096-101>105-080300-
...SOUTHWEST MISSOURI...

CITY           SKY/WX    TMP DP  RH WIND       PRES   REMARKS
SPRINGFIELD    CLOUDY    67  65  93 NE7       30.02S FOG
JOPLIN         LGT RAIN  65  64  97 NE7       30.02F FOG

$$
MOZ032>034-039>042-045>050-055>058-069>072-080300-
...CENTRAL MISSOURI...

CITY           SKY/WX    TMP DP  RH WIND       PRES   REMARKS
COLUMBIA       LGT RAIN  66  65  96 E3        30.05R FOG
JEFFERSON CITY LGT RAIN  66  63  90 E5        30.04R FOG
ROLLA          LGT RAIN  64  63  96 NE7       30.04R FOG
SEDALIA        LGT RAIN  67  64  90 CALM      30.05S FOG
OSAGE BEACH    CLOUDY    64  63  94 NE7       30.04S

$$
MOZ051-052-059>065-080300-
...EAST CENTRAL MISSOURI...

CITY           SKY/WX    TMP DP  RH WIND       PRES   REMARKS
ST LOUIS INTL  CLOUDY    68  62  81 E5        30.04R
SPIRIT OF STL  CLOUDY    67  64  90 NE3       30.03R
ST CHARLES     CLOUDY    68  63  84 NE5       30.03R

$$
MOZ072>076-082>087-097>100-106>115-080300-
...SOUTH CENTRAL AND SOUTHEAST MISSOURI...

CITY           SKY/WX    TMP DP  RH WIND       PRES   REMARKS
CAPE GIRARDEAU CLOUDY    75  73  93 SW5       30.00S
FARMINGTON     CLOUDY    68  68 100 NE5       30.07S
POPLAR BLUFF   CLOUDY    74  72  93 S5        30.00S
WEST PLAINS    CLOUDY    73  70  90 CALM      30.03F

$$


USA.gov is the U.S. government's official web portal to all federal, state and local government web resources and services.